Location: Fort Worth, Tx
(32.7431°N, 97.3695°W)
Time: 02:57:19
(UTC-05:00)

Altair - Visible Passes

Search period start: 26 February 2024 00:00
Search period end: 07 March 2024 00:00
Orbit: 1501 x 1682 km, 47.2° (Epoch: 25 February)

Date Brightness Start Highest point End Pass type
(mag) Time Alt. Az. Time Alt. Az. Time Alt. Az.
26 Feb 9.8 19:33:20 10° WNW 19:40:38 24° SW 19:48:08 10° S visible
01 Mar 9.3 07:25:18 10° S 07:32:52 30° SE 07:40:24 10° ENE visible
02 Mar 9.4 07:00:33 10° S 07:07:47 26° SE 07:14:57 10° ENE visible
03 Mar 9.4 06:35:52 10° S 06:42:41 23° SE 06:49:27 10° ENE visible
04 Mar 9.5 06:11:16 10° S 06:17:35 21° SE 06:23:52 10° E visible
05 Mar 9.5 05:46:46 10° SSE 05:52:30 18° SE 05:58:12 10° E visible
06 Mar 9.5 05:22:23 10° SSE 05:27:25 16° SE 05:32:24 10° E visible
06 Mar 7.8 07:21:47 10° SW 07:30:57 70° SE 07:40:03 10° NE visible
